Content
SEND FEEDBACK

Daily
Averages
Monthly
Summary
Mexico

LEONA VICARIO, QUINTANA ROO


Home > North America > Mexico > Quintana Roo
Elevation: 26 feet     Latitude: 20 59N     Longitude: 087 12W

WEATHER
 
SELECT A DAY
Number of Records: 163,905;   Date Range: 1/1/95 - 8/10/14
 
SHARE

PRINT THIS DATA

[ ← Previous Day ]
WEATHER ALMANAC - JANUARY 17, 2013
[ Next Day → ]
[ °C ]   °F
Weather ElementAverageHighLow
Temperature69.9 °F77 °F (8:49 am)66.2 °F (1:45 am)
Dewpoint64.4 °F69.8 °F (8:49 am)59 °F (11:46 pm)
Humidity83 %94 % (1:45 am)73 % (11:46 pm)
Barometer30.11 in30.19 in (7:44 pm)30.02 in (2:40 am)
Wind Speed7.3 mph12.7 mph (11:51 am)
Weather ElementAverage
Visibility6.7 mi
Wind DirectionNNW (321.7 °)

Weather ElementTotal
Precipitation---
Cooling Degree Days6.6 (Base 65)
Growing Degree Days21.6 (Base 50)
Averaged from 23 records on January 17, 2013
WEATHER CONDITIONS BREAKOUT
WIND DIRECTION BREAKOUT
WEATHER BY HOUR - JANUARY 17, 2013
[ °C ]   °F
Local TimeTemperatureDewpointHumidityBarometerVisibilityWind DirectionWind SpeedGust SpeedPrecipitationEventsConditions
1:45 AM66.2 °F64.4 °F94 %30.03 in7.0 miCalmPartly Cloudy
2:40 AM66.2 °F64.4 °F94 %30.02 in7.0 miNNW (340°)2.3 mphPartly Cloudy
3:42 AM66.2 °F64.4 °F94 %30.02 in7.0 miNW (310°)5.8 mphPartly Cloudy
4:40 AM66.2 °F64.4 °F94 %30.03 in7.0 miNW (310°)4.6 mphPartly Cloudy
5:43 AM66.2 °F64.4 °F94 %30.04 in7.0 miNW (320°)4.6 mphPartly Cloudy
6:41 AM66.2 °F64.4 °F94 %30.09 in7.0 miNW (320°)4.6 mphScattered Clouds
7:52 AM71.6 °F68.0 °F88 %30.11 in7.0 miNW (320°)4.6 mphScattered Clouds
8:49 AM77.0 °F69.8 °F78 %30.13 in7.0 miNW (320°)8.1 mphMostly Cloudy
9:47 AM77.0 °F69.8 °F78 %30.14 in7.0 miNNW (330°)11.5 mphMostly Cloudy
10:48 AM75.2 °F69.8 °F83 %30.13 in6.0 miNW (320°)9.2 mphRainLight Rain
11:51 AM73.4 °F68.0 °F83 %30.12 in6.0 miNNW (340°)12.7 mphMostly Cloudy
12:53 PM75.2 °F68.0 °F78 %30.10 in6.0 miNW (320°)6.9 mphOvercast
1:45 PM73.4 °F68.0 °F83 %30.09 in6.0 miNNW (340°)9.2 mphMostly Cloudy
2:46 PM71.6 °F64.4 °F78 %30.10 in6.0 miNorth (350°)10.4 mphOvercast
3:41 PM69.8 °F62.6 °F78 %30.11 in7.0 miNorth (350°)12.7 mphMostly Cloudy
4:43 PM69.8 °F62.6 °F78 %30.13 in7.0 miNNW (340°)10.4 mphOvercast
5:42 PM68.0 °F60.8 °F78 %30.14 in7.0 miNorth (350°)9.2 mphOvercast
6:41 PM68.0 °F60.8 °F78 %30.16 in7.0 miNorth (360°)8.1 mphOvercast
7:44 PM68.0 °F60.8 °F78 %30.19 in7.0 miNorth (350°)5.8 mphOvercast
8:52 PM68.0 °F60.8 °F78 %30.19 in7.0 miNorth (350°)6.9 mphOvercast
9:48 PM68.0 °F60.8 °F78 %30.19 in7.0 miNorth (360°)6.9 mphOvercast
10:47 PM68.0 °F60.8 °F78 %30.19 in6.0 miNorth (350°)6.9 mphOvercast
11:46 PM68.0 °F59.0 °F73 %30.17 in6.0 miNorth (350°)5.8 mphOvercast
Hourly data recorded from MMUN, located miles away from Leona Vicario, Quintana Roo







STORIES FROM OUR PARTNERS